Location: Amsterdam
(30.7274°N, 84.4357°W)
Time: 00:10:05
(UTC+00:00)

Explorer 11/Cluster Stage 4 - Pass Details

Date: 21 February 2026
Orbit: 463 x 1176 km, 28.8° (Epoch: 9 March)

Event Time Altitude Azimuth Distance (km) Brightness Sun altitude
Rises 18:39:43 0° 264° (W) 3,023 9.8 47.3°
Reaches altitude 10° 18:42:19 10° 262° (W) 1,992 9.1 47.1°
Maximum altitude 18:46:50 68° 180° (S) 590 7.5 46.8°
Drops below altitude 10° 18:50:39 10° 96° (E) 1,694 8.3 46.5°
Sets 18:52:43 0° 94° (E) 2,527 9.1 46.4°
